| time (UTC) | temp F | wind direction | speed knots | gust knots | rain 1hr in | rain 24hr in | rain mn in | humidity % | barometer mb |
| 20260906040059 | 71 | 0 | 0.0 | 0.0 | 0.00 | 0.12 | 0.12 | 97 | 1018.4 |
| 20260906035542 | 71 | 0 | 0.0 | 0.0 | 0.00 | 0.12 | 0.12 | 96 | 1018.4 |
| 20260906035041 | 71 | 0 | 0.0 | 0.0 | 0.00 | 0.12 | 0.12 | 96 | 1018.4 |
| 20260906034605 | 71 | 0 | 0.0 | 0.0 | 0.00 | 0.12 | 0.12 | 96 | 1018.5 |
| 20260906034042 | 71 | 0 | 0.0 | 0.0 | 0.00 | 0.12 | 0.12 | 96 | 1018.5 |
| 20260906033542 | 71 | 0 | 0.0 | 0.0 | 0.00 | 0.12 | 0.12 | 96 | 1018.5 |
| 20260906033101 | 71 | 0 | 0.0 | 0.0 | 0.00 | 0.12 | 0.12 | 96 | 1018.3 |
| 20260906032541 | 71 | 0 | 0.0 | 0.0 | 0.00 | 0.12 | 0.12 | 96 | 1018.3 |
| 20260906032042 | 71 | 0 | 0.0 | 0.0 | 0.00 | 0.12 | 0.12 | 96 | 1018.1 |
| 20260906031556 | 71 | 0 | 0.0 | 0.0 | 0.00 | 0.12 | 0.12 | 96 | 1018.0 |
| 20260906031042 | 71 | 0 | 0.0 | 0.0 | 0.00 | 0.12 | 0.12 | 96 | 1018.1 |
| 20260906030543 | 72 | 0 | 0.0 | 0.0 | 0.00 | 0.12 | 0.12 | 95 | 1018.3 |
| 20260906030057 | 72 | 0 | 0.0 | 0.0 | 0.00 | 0.12 | 0.12 | 95 | 1018.5 |
| 20260906025542 | 72 | 0 | 0.0 | 0.0 | 0.00 | 0.12 | 0.12 | 95 | 1018.4 |
| 20260906025042 | 72 | 0 | 0.0 | 0.0 | 0.00 | 0.12 | 0.12 | 95 | 1018.5 |
| 20260906024558 | 72 | 0 | 0.0 | 0.0 | 0.00 | 0.12 | 0.12 | 95 | 1018.3 |
| 20260906024042 | 72 | 0 | 0.0 | 0.0 | 0.00 | 0.12 | 0.12 | 96 | 1018.2 |
| 20260906023542 | 72 | 0 | 0.0 | 0.0 | 0.00 | 0.12 | 0.12 | 95 | 1018.0 |
| 20260906023106 | 72 | 0 | 0.0 | 0.0 | 0.00 | 0.12 | 0.12 | 95 | 1017.9 |
| 20260906022543 | 72 | 0 | 0.0 | 0.0 | 0.00 | 0.12 | 0.12 | 95 | 1017.8 |
| 20260906022042 | 72 | 0 | 0.0 | 0.0 | 0.00 | 0.12 | 0.12 | 95 | 1017.7 |
| 20260906021555 | 72 | 0 | 0.0 | 0.0 | 0.00 | 0.12 | 0.12 | 95 | 1017.7 |
| 20260906021042 | 72 | 0 | 0.0 | 0.0 | 0.00 | 0.12 | 0.12 | 95 | 1017.4 |
| 20260906020544 | 72 | 0 | 0.0 | 0.0 | 0.00 | 0.12 | 0.12 | 95 | 1017.4 |
| 20260906015541 | 73 | 0 | 0.0 | 0.0 | 0.00 | 0.12 | 0.12 | 95 | 1017.3 |
| 20260906015042 | 73 | 0 | 0.0 | 0.0 | 0.00 | 0.12 | 0.12 | 95 | 1017.4 |
| 20260906014606 | 73 | 0 | 0.0 | 0.0 | 0.00 | 0.12 | 0.12 | 94 | 1017.2 |
| 20260906014041 | 73 | 0 | 0.0 | 0.0 | 0.00 | 0.12 | 0.12 | 94 | 1017.3 |
| 20260906013541 | 73 | 0 | 0.0 | 0.0 | 0.00 | 0.12 | 0.12 | 94 | 1017.2 |
| 20260906013100 | 73 | 0 | 0.0 | 0.0 | 0.00 | 0.12 | 0.12 | 94 | 1017.1 |
| 20260906012541 | 73 | 0 | 0.0 | 0.0 | 0.00 | 0.12 | 0.12 | 94 | 1017.1 |
| 20260906012042 | 73 | 0 | 0.0 | 0.0 | 0.00 | 0.12 | 0.12 | 94 | 1017.1 |
| 20260906011606 | 73 | 0 | 0.0 | 0.0 | 0.00 | 0.12 | 0.12 | 94 | 1017.0 |
| 20260906011042 | 73 | 0 | 0.0 | 0.0 | 0.00 | 0.12 | 0.12 | 94 | 1017.1 |
| 20260906010542 | 73 | 0 | 0.0 | 0.0 | 0.00 | 0.12 | 0.12 | 93 | 1017.3 |
| 20260906010108 | 73 | 0 | 0.0 | 0.0 | 0.00 | 0.12 | 0.12 | 93 | 1017.3 |
| 20260906005542 | 73 | 0 | 0.0 | 0.0 | 0.00 | 0.12 | 0.12 | 93 | 1017.3 |
| 20260906005041 | 74 | 0 | 0.0 | 0.0 | 0.00 | 0.12 | 0.12 | 93 | 1017.4 |
| 20260906004556 | 74 | 0 | 0.0 | 0.0 | 0.00 | 0.12 | 0.12 | 92 | 1017.3 |
| 20260906004042 | 74 | 0 | 0.0 | 0.0 | 0.00 | 0.12 | 0.12 | 92 | 1017.4 |
| 20260906003543 | 74 | 0 | 0.0 | 0.0 | 0.00 | 0.12 | 0.12 | 92 | 1017.3 |
| 20260906003104 | 74 | 0 | 0.0 | 0.0 | 0.00 | 0.12 | 0.12 | 92 | 1017.4 |
| 20260906002542 | 74 | 0 | 0.0 | 0.0 | 0.00 | 0.12 | 0.12 | 92 | 1017.4 |
| 20260906002042 | 74 | 0 | 0.0 | 0.0 | 0.00 | 0.12 | 0.12 | 91 | 1017.4 |
| 20260906001555 | 75 | 0 | 0.0 | 0.0 | 0.00 | 0.12 | 0.12 | 90 | 1017.3 |
| 20260906001041 | 75 | 0 | 0.0 | 0.9 | 0.00 | 0.12 | 0.12 | 90 | 1017.4 |
| 20260906000542 | 75 | 0 | 0.0 | 0.9 | 0.00 | 0.12 | 0.12 | 89 | 1017.4 |
| 20260906000101 | 75 | 0 | 0.0 | 0.9 | 0.00 | 0.12 | 0.12 | 88 | 1017.4 |
| 20260905235542 | 75 | 136 | 0.0 | 0.9 | 0.00 | 0.12 | 0.12 | 88 | 1017.4 |
| 20260905235042 | 76 | 0 | 0.0 | 1.7 | 0.00 | 0.12 | 0.12 | 87 | 1017.4 |
| 20260905234600 | 76 | 0 | 0.0 | 1.7 | 0.00 | 0.12 | 0.12 | 86 | 1017.4 |
| 20260905234042 | 76 | 0 | 0.0 | 1.7 | 0.00 | 0.12 | 0.12 | 86 | 1017.3 |
| 20260905233541 | 76 | 0 | 0.0 | 1.7 | 0.00 | 0.12 | 0.12 | 85 | 1017.1 |
| 20260905233111 | 77 | 0 | 0.0 | 1.7 | 0.00 | 0.12 | 0.12 | 85 | 1017.1 |
| 20260905232542 | 77 | 0 | 0.0 | 1.7 | 0.00 | 0.12 | 0.12 | 85 | 1017.0 |
| 20260905232043 | 78 | 0 | 0.0 | 1.7 | 0.00 | 0.12 | 0.12 | 85 | 1016.8 |
| 20260905231555 | 79 | 0 | 0.0 | 2.6 | 0.00 | 0.12 | 0.12 | 84 | 1017.0 |
| 20260905231044 | 79 | 0 | 0.0 | 2.6 | 0.00 | 0.12 | 0.12 | 83 | 1016.9 |
| 20260905230542 | 80 | 211 | 0.0 | 3.5 | 0.00 | 0.12 | 0.12 | 80 | 1017.1 |
| 20260905230100 | 80 | 319 | 0.0 | 3.5 | 0.00 | 0.12 | 0.12 | 81 | 1017.3 |
| 20260905225542 | 80 | 9 | 0.9 | 3.5 | 0.00 | 0.12 | 0.12 | 81 | 1017.2 |
| 20260905225042 | 79 | 173 | 0.9 | 2.6 | 0.00 | 0.12 | 0.12 | 85 | 1017.5 |
| 20260905224607 | 79 | 318 | 0.0 | 1.7 | 0.00 | 0.12 | 0.12 | 88 | 1017.5 |
| 20260905224041 | 79 | 318 | 0.0 | 1.7 | 0.00 | 0.12 | 0.12 | 88 | 1017.5 |
| 20260905223542 | 78 | 0 | 0.0 | 1.7 | 0.00 | 0.12 | 0.12 | 89 | 1017.4 |
| 20260905223101 | 78 | 0 | 0.0 | 1.7 | 0.00 | 0.12 | 0.12 | 90 | 1017.2 |
| 20260905222543 | 78 | 0 | 0.0 | 1.7 | 0.00 | 0.12 | 0.12 | 90 | 1017.2 |
| 20260905222042 | 78 | 0 | 0.9 | 1.7 | 0.00 | 0.12 | 0.12 | 89 | 1017.3 |
| 20260905221602 | 78 | 107 | 0.0 | 1.7 | 0.00 | 0.12 | 0.12 | 88 | 1017.1 |
| 20260905221042 | 78 | 0 | 0.0 | 1.7 | 0.00 | 0.12 | 0.12 | 88 | 1017.1 |
| 20260905220541 | 78 | 0 | 0.0 | 0.9 | 0.00 | 0.12 | 0.12 | 88 | 1017.2 |
| 20260905220100 | 78 | 62 | 0.0 | 4.3 | 0.00 | 0.12 | 0.12 | 89 | 1017.4 |
| 20260905215542 | 78 | 62 | 0.0 | 5.2 | 0.00 | 0.12 | 0.12 | 90 | 1017.5 |
| 20260905215042 | 78 | 0 | 0.9 | 5.2 | 0.00 | 0.12 | 0.12 | 90 | 1017.5 |
| 20260905214554 | 78 | 0 | 0.0 | 1.7 | 0.00 | 0.12 | 0.12 | 90 | 1017.4 |
| 20260905214042 | 78 | 113 | 0.0 | 1.7 | 0.00 | 0.12 | 0.12 | 90 | 1017.4 |
| 20260905213543 | 78 | 93 | 0.0 | 1.7 | 0.00 | 0.12 | 0.12 | 90 | 1017.5 |
| 20260905213110 | 78 | 0 | 0.0 | 1.7 | 0.00 | 0.12 | 0.12 | 90 | 1017.7 |
| 20260905212544 | 78 | 0 | 0.0 | 1.7 | 0.00 | 0.12 | 0.12 | 90 | 1017.7 |
| 20260905212042 | 78 | 92 | 0.0 | 0.9 | 0.00 | 0.12 | 0.12 | 90 | 1017.6 |
| 20260905211611 | 78 | 92 | 0.0 | 1.7 | 0.00 | 0.12 | 0.12 | 92 | 1017.5 |
| 20260905211045 | 78 | 0 | 0.0 | 2.6 | 0.00 | 0.12 | 0.12 | 92 | 1017.6 |
| 20260905210542 | 78 | 0 | 0.0 | 2.6 | 0.00 | 0.12 | 0.12 | 92 | 1017.6 |
| 20260905210114 | 78 | 135 | 0.9 | 2.6 | 0.00 | 0.12 | 0.12 | 93 | 1017.7 |
| 20260905205542 | 78 | 103 | 0.0 | 2.6 | 0.00 | 0.12 | 0.12 | 94 | 1017.8 |
| 20260905205043 | 77 | 71 | 0.0 | 1.7 | 0.00 | 0.12 | 0.12 | 94 | 1017.9 |
| 20260905204603 | 77 | 140 | 0.0 | 1.7 | 0.00 | 0.12 | 0.12 | 94 | 1018.0 |
| 20260905204042 | 77 | 254 | 0.0 | 4.3 | 0.00 | 0.12 | 0.12 | 94 | 1017.9 |
| 20260905203542 | 77 | 0 | 0.9 | 5.2 | 0.00 | 0.12 | 0.12 | 95 | 1017.9 |
| 20260905203102 | 76 | 136 | 1.7 | 5.2 | 0.00 | 0.12 | 0.12 | 96 | 1017.9 |
| 20260905202545 | 76 | 102 | 0.9 | 3.5 | 0.00 | 0.12 | 0.12 | 96 | 1018.0 |
| 20260905202042 | 76 | 0 | 0.0 | 1.7 | 0.00 | 0.12 | 0.12 | 95 | 1018.1 |
| 20260905201556 | 76 | 0 | 0.0 | 0.9 | 0.00 | 0.12 | 0.12 | 95 | 1018.1 |
| 20260905201040 | 76 | 0 | 0.0 | 1.7 | 0.00 | 0.12 | 0.12 | 95 | 1018.0 |
| 20260905200545 | 76 | 0 | 0.0 | 3.5 | 0.00 | 0.12 | 0.12 | 95 | 1018.1 |
| 20260905195543 | 76 | 144 | 0.0 | 2.6 | 0.00 | 0.12 | 0.12 | 96 | 1018.2 |
| 20260905195042 | 76 | 0 | 0.0 | 1.7 | 0.00 | 0.12 | 0.12 | 95 | 1018.3 |
| 20260905194601 | 76 | 130 | 0.0 | 0.9 | 0.00 | 0.12 | 0.12 | 95 | 1018.3 |
| 20260905194042 | 76 | 0 | 0.0 | 0.9 | 0.00 | 0.12 | 0.12 | 94 | 1018.4 |
| 20260905193543 | 76 | 0 | 0.0 | 0.9 | 0.00 | 0.12 | 0.12 | 95 | 1018.3 |
| 20260905193057 | 76 | 0 | 0.0 | 0.9 | 0.00 | 0.12 | 0.12 | 94 | 1018.3 |
| 20260905192542 | 75 | 0 | 0.0 | 0.9 | 0.07 | 0.12 | 0.12 | 94 | 1018.3 |
| 20260905192040 | 75 | 0 | 0.0 | 0.9 | 0.12 | 0.12 | 0.12 | 94 | 1018.3 |
| 20260905191603 | 75 | 0 | 0.0 | 0.9 | 0.12 | 0.12 | 0.12 | 93 | 1018.5 |
| 20260905191042 | 76 | 0 | 0.0 | 0.9 | 0.12 | 0.12 | 0.12 | 92 | 1018.7 |
| 20260905190543 | 76 | 0 | 0.0 | 0.9 | 0.12 | 0.12 | 0.12 | 93 | 1018.6 |
| 20260905190105 | 76 | 0 | 0.0 | 0.9 | 0.12 | 0.12 | 0.12 | 92 | 1018.8 |
| 20260905185542 | 77 | 0 | 0.0 | 2.6 | 0.12 | 0.12 | 0.12 | 92 | 1018.9 |
| 20260905185040 | 77 | 0 | 0.0 | 2.6 | 0.12 | 0.12 | 0.12 | 90 | 1019.0 |
| 20260905184558 | 78 | 0 | 0.9 | 2.6 | 0.12 | 0.12 | 0.12 | 89 | 1019.0 |
| 20260905184042 | 78 | 113 | 0.0 | 2.6 | 0.12 | 0.12 | 0.12 | 87 | 1018.9 |
| 20260905183541 | 80 | 0 | 0.0 | 4.3 | 0.12 | 0.12 | 0.12 | 84 | 1018.9 |
| 20260905183115 | 82 | 0 | 0.9 | 6.1 | 0.12 | 0.12 | 0.12 | 83 | 1018.8 |
| 20260905182542 | 84 | 36 | 1.7 | 3.5 | 0.03 | 0.03 | 0.03 | 78 | 1018.9 |
| 20260905182041 | 86 | 0 | 0.9 | 4.3 | 0.00 | 0.00 | 0.00 | 76 | 1018.9 |
| 20260905181559 | 87 | 338 | 1.7 | 4.3 | 0.00 | 0.00 | 0.00 | 72 | 1018.9 |
| 20260905181041 | 87 | 0 | 0.9 | 3.5 | 0.00 | 0.00 | 0.00 | 68 | 1018.9 |
| 20260905180541 | 87 | 90 | 0.0 | 1.7 | 0.00 | 0.00 | 0.00 | 76 | 1019.0 |
| 20260905180108 | 87 | 0 | 0.0 | 5.2 | 0.00 | 0.00 | 0.00 | 72 | 1019.1 |
| 20260905175547 | 87 | 325 | 0.0 | 5.2 | 0.00 | 0.00 | 0.00 | 75 | 1019.1 |
| 20260905175043 | 87 | 5 | 0.9 | 4.3 | 0.00 | 0.00 | 0.00 | 75 | 1019.0 |
| 20260905174559 | 86 | 22 | 0.9 | 4.3 | 0.00 | 0.00 | 0.00 | 72 | 1019.0 |
| 20260905174044 | 86 | 0 | 0.0 | 1.7 | 0.00 | 0.00 | 0.00 | 73 | 1019.0 |
| 20260905173542 | 87 | 0 | 0.0 | 1.7 | 0.00 | 0.00 | 0.00 | 72 | 1019.2 |
| 20260905173055 | 88 | 188 | 0.0 | 5.2 | 0.00 | 0.00 | 0.00 | 68 | 1019.2 |
| 20260905172543 | 88 | 40 | 0.0 | 5.2 | 0.00 | 0.00 | 0.00 | 67 | 1019.2 |
| 20260905172041 | 89 | 12 | 1.7 | 5.2 | 0.00 | 0.00 | 0.00 | 65 | 1019.1 |
| 20260905171557 | 89 | 318 | 0.0 | 3.5 | 0.00 | 0.00 | 0.00 | 65 | 1019.1 |
| 20260905171041 | 90 | 101 | 0.9 | 3.5 | 0.00 | 0.00 | 0.00 | 64 | 1019.2 |
| 20260905170538 | 89 | 99 | 0.9 | 2.6 | 0.00 | 0.00 | 0.00 | 66 | 1019.3 |
| 20260905170100 | 89 | 0 | 0.0 | 2.6 | 0.00 | 0.00 | 0.00 | 69 | 1019.4 |
| 20260905165538 | 88 | 57 | 0.0 | 2.6 | 0.00 | 0.00 | 0.00 | 70 | 1019.4 |
| 20260905165038 | 88 | 94 | 0.9 | 4.3 | 0.00 | 0.00 | 0.00 | 68 | 1019.6 |
| 20260905164559 | 89 | 290 | 0.9 | 4.3 | 0.00 | 0.00 | 0.00 | 68 | 1019.7 |
| 20260905164037 | 89 | 258 | 1.7 | 3.5 | 0.00 | 0.00 | 0.00 | 68 | 1019.7 |
| 20260905163541 | 89 | 47 | 0.9 | 4.3 | 0.00 | 0.00 | 0.00 | 68 | 1019.7 |
| 20260905163108 | 88 | 0 | 0.9 | 5.2 | 0.00 | 0.00 | 0.00 | 68 | 1019.6 |
| 20260905162537 | 88 | 216 | 0.9 | 5.2 | 0.00 | 0.00 | 0.00 | 67 | 1019.7 |
| 20260905162038 | 88 | 33 | 0.0 | 3.5 | 0.00 | 0.00 | 0.00 | 71 | 1019.8 |
| 20260905161557 | 89 | 28 | 0.9 | 5.2 | 0.00 | 0.00 | 0.00 | 65 | 1019.9 |
| 20260905161038 | 89 | 49 | 1.7 | 5.2 | 0.00 | 0.00 | 0.00 | 67 | 1019.9 |
| 20260905160538 | 89 | 20 | 0.9 | 3.5 | 0.00 | 0.00 | 0.00 | 67 | 1019.8 |
| 20260905160059 | 89 | 334 | 0.0 | 4.3 | 0.00 | 0.00 | 0.00 | 69 | 1019.9 |
| 20260905155538 | 88 | 76 | 1.7 | 4.3 | 0.00 | 0.00 | 0.00 | 67 | 1019.9 |
| 20260905155040 | 88 | 71 | 0.0 | 3.5 | 0.00 | 0.00 | 0.00 | 71 | 1019.8 |
| 20260905154601 | 88 | 0 | 0.9 | 3.5 | 0.00 | 0.00 | 0.00 | 68 | 1019.9 |
| 20260905154040 | 87 | 111 | 0.0 | 2.6 | 0.00 | 0.00 | 0.00 | 68 | 1019.8 |
| 20260905153538 | 87 | 0 | 0.9 | 2.6 | 0.00 | 0.00 | 0.00 | 73 | 1019.8 |
| 20260905153111 | 86 | 67 | 0.9 | 2.6 | 0.00 | 0.00 | 0.00 | 70 | 1019.9 |
| 20260905152540 | 86 | 0 | 0.0 | 2.6 | 0.00 | 0.00 | 0.00 | 73 | 1020.0 |
| 20260905152041 | 85 | 315 | 0.0 | 3.5 | 0.00 | 0.00 | 0.00 | 77 | 1020.0 |
| 20260905151613 | 84 | 0 | 0.9 | 3.5 | 0.00 | 0.00 | 0.00 | 76 | 1020.1 |
| 20260905151040 | 84 | 0 | 0.0 | 0.0 | 0.00 | 0.00 | 0.00 | 80 | 1020.1 |
| 20260905150539 | 83 | 0 | 0.0 | 0.0 | 0.00 | 0.00 | 0.00 | 81 | 1020.2 |
| 20260905150100 | 81 | 0 | 0.0 | 0.0 | 0.00 | 0.00 | 0.00 | 85 | 1020.1 |
| 20260905145540 | 81 | 0 | 0.0 | 0.0 | 0.00 | 0.00 | 0.00 | 86 | 1020.1 |
| 20260905145040 | 80 | 0 | 0.0 | 0.0 | 0.00 | 0.00 | 0.00 | 89 | 1020.2 |
| 20260905144559 | 80 | 0 | 0.0 | 0.0 | 0.00 | 0.00 | 0.00 | 89 | 1020.1 |
| 20260905144039 | 79 | 0 | 0.0 | 0.0 | 0.00 | 0.00 | 0.00 | 91 | 1020.2 |
| 20260905143540 | 78 | 0 | 0.0 | 0.0 | 0.00 | 0.00 | 0.00 | 92 | 1020.1 |
| 20260905143100 | 78 | 0 | 0.0 | 0.0 | 0.00 | 0.00 | 0.00 | 93 | 1020.2 |
| 20260905142541 | 77 | 0 | 0.0 | 0.0 | 0.00 | 0.00 | 0.00 | 93 | 1020.1 |
| 20260905142039 | 77 | 0 | 0.0 | 0.0 | 0.00 | 0.00 | 0.00 | 93 | 1020.2 |
| 20260905141604 | 77 | 0 | 0.0 | 0.0 | 0.00 | 0.00 | 0.00 | 95 | 1020.2 |
| 20260905141040 | 76 | 0 | 0.0 | 0.0 | 0.00 | 0.00 | 0.00 | 95 | 1020.2 |
| 20260905140540 | 76 | 0 | 0.0 | 0.0 | 0.00 | 0.00 | 0.00 | 95 | 1020.1 |
| 20260905140108 | 75 | 0 | 0.0 | 0.0 | 0.00 | 0.00 | 0.00 | 96 | 1020.2 |
| 20260905135540 | 75 | 0 | 0.0 | 0.0 | 0.00 | 0.00 | 0.00 | 97 | 1020.2 |
| 20260905135040 | 74 | 0 | 0.0 | 0.0 | 0.00 | 0.00 | 0.00 | 97 | 1020.3 |
| 20260905134603 | 74 | 0 | 0.0 | 0.0 | 0.00 | 0.00 | 0.00 | 97 | 1020.3 |
| 20260905134040 | 73 | 0 | 0.0 | 0.0 | 0.00 | 0.00 | 0.00 | 98 | 1020.3 |
| 20260905133541 | 73 | 0 | 0.0 | 0.0 | 0.00 | 0.00 | 0.00 | 98 | 1020.2 |
| 20260905133059 | 72 | 0 | 0.0 | 0.0 | 0.00 | 0.00 | 0.00 | 98 | 1020.3 |
| 20260905132539 | 72 | 0 | 0.0 | 0.0 | 0.00 | 0.00 | 0.00 | 98 | 1020.3 |
| 20260905132045 | 72 | 0 | 0.0 | 0.0 | 0.00 | 0.00 | 0.00 | 98 | 1020.5 |
| 20260905131613 | 71 | 0 | 0.0 | 0.0 | 0.00 | 0.00 | 0.00 | 97 | 1020.4 |
| 20260905131040 | 71 | 0 | 0.0 | 0.0 | 0.00 | 0.00 | 0.00 | 97 | 1020.4 |
| 20260905130543 | 71 | 0 | 0.0 | 0.0 | 0.00 | 0.00 | 0.00 | 97 | 1020.5 |
| 20260905130100 | 71 | 0 | 0.0 | 0.0 | 0.00 | 0.00 | 0.00 | 97 | 1020.5 |
| 20260905125537 | 70 | 0 | 0.0 | 0.0 | 0.00 | 0.00 | 0.00 | 97 | 1020.6 |
| 20260905125038 | 70 | 0 | 0.0 | 0.0 | 0.00 | 0.00 | 0.00 | 97 | 1020.6 |
| 20260905124606 | 70 | 0 | 0.0 | 0.0 | 0.00 | 0.00 | 0.00 | 98 | 1020.6 |
| 20260905124038 | 70 | 0 | 0.0 | 0.0 | 0.00 | 0.00 | 0.00 | 98 | 1020.5 |
| 20260905123538 | 70 | 0 | 0.0 | 0.0 | 0.00 | 0.00 | 0.00 | 98 | 1020.4 |
| 20260905123100 | 69 | 0 | 0.0 | 0.0 | 0.00 | 0.00 | 0.00 | 98 | 1020.5 |
| 20260905122541 | 69 | 0 | 0.0 | 0.0 | 0.00 | 0.00 | 0.00 | 98 | 1020.4 |
| 20260905122038 | 69 | 0 | 0.0 | 0.0 | 0.00 | 0.00 | 0.00 | 98 | 1020.3 |
| 20260905121607 | 69 | 0 | 0.0 | 0.0 | 0.00 | 0.00 | 0.00 | 98 | 1020.4 |
| 20260905121039 | 68 | 0 | 0.0 | 0.0 | 0.00 | 0.00 | 0.00 | 97 | 1020.2 |
| 20260905120539 | 68 | 0 | 0.0 | 0.0 | 0.00 | 0.00 | 0.00 | 97 | 1020.2 |
| 20260905120104 | 68 | 0 | 0.0 | 0.0 | 0.00 | 0.00 | 0.00 | 97 | 1020.1 |
| 20260905115539 | 68 | 0 | 0.0 | 0.0 | 0.00 | 0.00 | 0.00 | 97 | 1020.0 |
| 20260905115039 | 68 | 0 | 0.0 | 0.0 | 0.00 | 0.00 | 0.00 | 97 | 1020.0 |
| 20260905114600 | 68 | 0 | 0.0 | 0.0 | 0.00 | 0.00 | 0.00 | 97 | 1020.1 |
| 20260905114042 | 68 | 0 | 0.0 | 0.0 | 0.00 | 0.00 | 0.00 | 97 | 1019.9 |
| 20260905113538 | 68 | 0 | 0.0 | 0.0 | 0.00 | 0.00 | 0.00 | 97 | 1019.9 |
| 20260905113100 | 68 | 0 | 0.0 | 0.0 | 0.00 | 0.00 | 0.00 | 97 | 1019.8 |
| 20260905112541 | 68 | 0 | 0.0 | 0.0 | 0.00 | 0.00 | 0.00 | 97 | 1019.8 |
| 20260905112038 | 67 | 0 | 0.0 | 0.0 | 0.00 | 0.00 | 0.00 | 97 | 1019.7 |
| 20260905111600 | 67 | 0 | 0.0 | 0.0 | 0.00 | 0.00 | 0.00 | 97 | 1019.7 |
| 20260905111041 | 67 | 0 | 0.0 | 0.0 | 0.00 | 0.00 | 0.00 | 96 | 1019.5 |
| 20260905110538 | 67 | 0 | 0.0 | 0.0 | 0.00 | 0.00 | 0.00 | 96 | 1019.5 |
| 20260905110059 | 67 | 0 | 0.0 | 0.0 | 0.00 | 0.00 | 0.00 | 96 | 1019.7 |
| 20260905105538 | 67 | 0 | 0.0 | 0.0 | 0.00 | 0.00 | 0.00 | 96 | 1019.6 |
| 20260905105038 | 67 | 0 | 0.0 | 0.0 | 0.00 | 0.00 | 0.00 | 96 | 1019.4 |
| 20260905104558 | 67 | 0 | 0.0 | 0.0 | 0.00 | 0.00 | 0.00 | 96 | 1019.4 |
| 20260905104038 | 67 | 0 | 0.0 | 0.0 | 0.00 | 0.00 | 0.00 | 96 | 1019.4 |
| 20260905103542 | 67 | 0 | 0.0 | 0.0 | 0.00 | 0.00 | 0.00 | 96 | 1019.4 |
| 20260905103058 | 67 | 0 | 0.0 | 0.0 | 0.00 | 0.00 | 0.00 | 96 | 1019.3 |
| 20260905102538 | 67 | 0 | 0.0 | 0.0 | 0.00 | 0.00 | 0.00 | 96 | 1019.3 |
| 20260905102040 | 67 | 0 | 0.0 | 0.0 | 0.00 | 0.00 | 0.00 | 96 | 1019.3 |
| 20260905101600 | 68 | 0 | 0.0 | 0.0 | 0.00 | 0.00 | 0.00 | 96 | 1019.3 |
| 20260905101037 | 68 | 0 | 0.0 | 0.0 | 0.00 | 0.00 | 0.00 | 96 | 1019.2 |
| 20260905100539 | 68 | 0 | 0.0 | 0.0 | 0.00 | 0.00 | 0.00 | 96 | 1019.2 |
| 20260905100120 | 68 | 0 | 0.0 | 0.0 | 0.00 | 0.00 | 0.00 | 96 | 1019.2 |
| 20260905095540 | 68 | 0 | 0.0 | 0.0 | 0.00 | 0.00 | 0.00 | 96 | 1019.1 |
| 20260905095038 | 68 | 0 | 0.0 | 0.0 | 0.00 | 0.00 | 0.00 | 96 | 1019.2 |
| 20260905094552 | 68 | 0 | 0.0 | 0.0 | 0.00 | 0.00 | 0.00 | 96 | 1019.2 |
| 20260905094038 | 68 | 0 | 0.0 | 0.0 | 0.00 | 0.00 | 0.00 | 96 | 1019.2 |
| 20260905093542 | 68 | 0 | 0.0 | 0.0 | 0.00 | 0.00 | 0.00 | 96 | 1019.1 |
| 20260905093059 | 68 | 0 | 0.0 | 0.0 | 0.00 | 0.00 | 0.00 | 96 | 1018.9 |
| 20260905092540 | 68 | 0 | 0.0 | 0.0 | 0.00 | 0.00 | 0.00 | 96 | 1018.9 |
| 20260905092038 | 68 | 0 | 0.0 | 0.0 | 0.00 | 0.00 | 0.00 | 96 | 1018.9 |
| 20260905091559 | 68 | 0 | 0.0 | 0.0 | 0.00 | 0.00 | 0.00 | 96 | 1018.7 |
| 20260905091037 | 68 | 0 | 0.0 | 0.0 | 0.00 | 0.00 | 0.00 | 96 | 1018.7 |
| 20260905090537 | 68 | 0 | 0.0 | 0.0 | 0.00 | 0.00 | 0.00 | 96 | 1018.9 |
| 20260905090135 | 68 | 0 | 0.0 | 0.0 | 0.00 | 0.00 | 0.00 | 96 | 1018.9 |
| 20260905085541 | 68 | 0 | 0.0 | 0.0 | 0.00 | 0.00 | 0.00 | 96 | 1019.0 |
| 20260905085042 | 68 | 0 | 0.0 | 0.0 | 0.00 | 0.00 | 0.00 | 96 | 1019.1 |
| 20260905084555 | 68 | 0 | 0.0 | 0.0 | 0.00 | 0.00 | 0.00 | 96 | 1019.0 |
| 20260905084044 | 69 | 0 | 0.0 | 0.0 | 0.00 | 0.00 | 0.00 | 96 | 1019.1 |
| 20260905083538 | 69 | 0 | 0.0 | 0.0 | 0.00 | 0.00 | 0.00 | 97 | 1019.1 |
| 20260905083100 | 69 | 0 | 0.0 | 0.0 | 0.00 | 0.00 | 0.00 | 97 | 1019.1 |
| 20260905082538 | 69 | 0 | 0.0 | 0.0 | 0.00 | 0.00 | 0.00 | 96 | 1019.2 |
| 20260905082038 | 69 | 0 | 0.0 | 0.0 | 0.00 | 0.00 | 0.00 | 96 | 1019.3 |
| 20260905081600 | 69 | 0 | 0.0 | 0.0 | 0.00 | 0.00 | 0.00 | 96 | 1019.3 |
| 20260905081037 | 69 | 0 | 0.0 | 0.0 | 0.00 | 0.00 | 0.00 | 96 | 1019.2 |
| 20260905080544 | 69 | 0 | 0.0 | 0.0 | 0.00 | 0.00 | 0.00 | 96 | 1019.3 |
| 20260905080059 | 69 | 0 | 0.0 | 0.0 | 0.00 | 0.00 | 0.00 | 96 | 1019.4 |
| 20260905075540 | 69 | 0 | 0.0 | 0.0 | 0.00 | 0.00 | 0.00 | 96 | 1019.3 |
| 20260905075040 | 69 | 0 | 0.0 | 0.0 | 0.00 | 0.00 | 0.00 | 96 | 1019.4 |
| 20260905074605 | 69 | 0 | 0.0 | 0.0 | 0.00 | 0.00 | 0.00 | 96 | 1019.5 |
| 20260905074038 | 69 | 0 | 0.0 | 0.0 | 0.00 | 0.00 | 0.00 | 96 | 1019.5 |
| 20260905073542 | 69 | 0 | 0.0 | 0.0 | 0.00 | 0.00 | 0.00 | 96 | 1019.5 |
| 20260905073105 | 69 | 0 | 0.0 | 0.0 | 0.00 | 0.00 | 0.00 | 96 | 1019.6 |
| 20260905072542 | 69 | 0 | 0.0 | 0.0 | 0.00 | 0.00 | 0.00 | 95 | 1019.5 |
| 20260905072041 | 69 | 0 | 0.0 | 0.0 | 0.00 | 0.00 | 0.00 | 96 | 1019.4 |
| 20260905071555 | 69 | 0 | 0.0 | 0.0 | 0.00 | 0.00 | 0.00 | 96 | 1019.6 |
| 20260905071045 | 70 | 0 | 0.0 | 0.0 | 0.00 | 0.00 | 0.00 | 96 | 1019.6 |
| 20260905070541 | 70 | 0 | 0.0 | 0.0 | 0.00 | 0.00 | 0.00 | 96 | 1019.4 |
| 20260905070101 | 70 | 0 | 0.0 | 0.0 | 0.00 | 0.00 | 0.00 | 96 | 1019.7 |
| 20260905065543 | 70 | 0 | 0.0 | 0.0 | 0.00 | 0.00 | 0.00 | 96 | 1019.6 |
| 20260905065042 | 70 | 0 | 0.0 | 0.0 | 0.00 | 0.00 | 0.00 | 96 | 1019.6 |
| 20260905064557 | 70 | 0 | 0.0 | 0.0 | 0.00 | 0.00 | 0.00 | 96 | 1019.6 |
| 20260905064042 | 70 | 0 | 0.0 | 0.0 | 0.00 | 0.00 | 0.00 | 96 | 1019.6 |
| 20260905063546 | 70 | 0 | 0.0 | 0.0 | 0.00 | 0.00 | 0.00 | 96 | 1019.7 |
| 20260905063104 | 70 | 0 | 0.0 | 0.0 | 0.00 | 0.00 | 0.00 | 96 | 1019.7 |
| 20260905062541 | 70 | 0 | 0.0 | 0.0 | 0.00 | 0.00 | 0.00 | 96 | 1019.8 |
| 20260905062043 | 70 | 0 | 0.0 | 0.0 | 0.00 | 0.00 | 0.00 | 95 | 1019.8 |
| 20260905061556 | 70 | 0 | 0.0 | 0.0 | 0.00 | 0.00 | 0.00 | 95 | 1019.7 |
| 20260905061041 | 70 | 0 | 0.0 | 0.0 | 0.00 | 0.00 | 0.00 | 95 | 1019.7 |
| 20260905060541 | 70 | 0 | 0.0 | 0.0 | 0.00 | 0.00 | 0.00 | 96 | 1019.8 |
| 20260905055545 | 71 | 0 | 0.0 | 0.0 | 0.00 | 0.00 | 0.00 | 96 | 1020.0 |
| 20260905055042 | 71 | 0 | 0.0 | 0.0 | 0.00 | 0.00 | 0.00 | 96 | 1019.9 |
| 20260905054555 | 71 | 0 | 0.0 | 0.0 | 0.00 | 0.00 | 0.00 | 95 | 1019.9 |
| 20260905054041 | 71 | 0 | 0.0 | 0.0 | 0.00 | 0.00 | 0.00 | 95 | 1019.9 |
| 20260905053542 | 71 | 0 | 0.0 | 0.0 | 0.00 | 0.00 | 0.00 | 95 | 1019.9 |
| 20260905053057 | 71 | 0 | 0.0 | 0.0 | 0.00 | 0.00 | 0.00 | 95 | 1019.9 |
| 20260905052542 | 71 | 0 | 0.0 | 0.0 | 0.00 | 0.00 | 0.00 | 95 | 1019.9 |
| 20260905052042 | 71 | 0 | 0.0 | 0.0 | 0.00 | 0.00 | 0.00 | 95 | 1019.9 |
| 20260905051600 | 71 | 0 | 0.0 | 0.0 | 0.00 | 0.00 | 0.00 | 95 | 1019.9 |
| 20260905051041 | 71 | 0 | 0.0 | 0.0 | 0.00 | 0.00 | 0.00 | 95 | 1020.0 |
| 20260905050542 | 71 | 0 | 0.0 | 0.0 | 0.00 | 0.00 | 0.00 | 95 | 1019.9 |
| 20260905050106 | 72 | 0 | 0.0 | 0.0 | 0.00 | 0.00 | 0.00 | 95 | 1020.0 |
| 20260905045541 | 72 | 0 | 0.0 | 0.0 | 0.00 | 0.00 | 0.00 | 95 | 1020.0 |
| 20260905045042 | 72 | 0 | 0.0 | 0.0 | 0.00 | 0.00 | 0.00 | 95 | 1020.0 |
| 20260905044607 | 72 | 0 | 0.0 | 0.0 | 0.00 | 0.00 | 0.00 | 95 | 1019.9 |
| 20260905044041 | 72 | 0 | 0.0 | 0.0 | 0.00 | 0.00 | 0.00 | 95 | 1020.0 |
| 20260905043543 | 72 | 0 | 0.0 | 0.0 | 0.00 | 0.00 | 0.00 | 95 | 1020.0 |
| 20260905043056 | 72 | 0 | 0.0 | 0.0 | 0.00 | 0.00 | 0.00 | 94 | 1020.2 |
| 20260905042542 | 72 | 0 | 0.0 | 0.0 | 0.00 | 0.00 | 0.00 | 94 | 1020.0 |
| 20260905042038 | 72 | 0 | 0.0 | 0.0 | 0.00 | 0.00 | 0.00 | 94 | 1020.0 |
| 20260905041601 | 72 | 0 | 0.0 | 0.0 | 0.00 | 0.00 | 0.00 | 94 | 1019.9 |
| 20260905041038 | 73 | 0 | 0.0 | 0.0 | 0.00 | 0.00 | 0.00 | 94 | 1019.9 |
| 20260905040538 | 73 | 0 | 0.0 | 0.0 | 0.00 | 0.00 | 0.00 | 94 | 1019.9 |